Погода в Сете

Франция     43°24′38″N   3°40′40″E
темп.,
°C
ветер,
м/с
пор.,
м/с
влажн.,
%
обл.,
%
осадки,
мм/ч
давл.,
гПа
погр.,
м
6 мая, чт
чт623:00+15зсз47515 0.0 1016337
02:00+13з34595 0.0 1016113
05:00+12зсз236666 0.0 101579
08:00+13зсз1265100 0.0 1015111
11:00+17юз245577 0.0 1015546
14:00+19ююз455384 0.0 1014944
17:00+17ю236390 0.0 1013195
20:00+18юз2269100 0.0 101470
7 мая, пт
пт723:00+17з2462100 0.0 1015164
02:00+15з387199 0.0 1015468
05:00+15з2472100 0.0 1014231
08:00+15зсз377391 0.1 1016410
11:00+15зсз5869100 0.0 1017557
14:00+17зсз696088 0.0 1017876
17:00+19сз7115386 0.0 1016989
20:00+18зсз51058100 0.0 1017944
8 мая, сб
сб823:00+16сз3767100 0.0 1018231
02:00+14ююз016826 0.0 101815
05:00+14зсз007334 0.0 101811
08:00+14сз017050 0.0 101880
11:00+18ююв22555 0.0 1018465
14:00+19ююв45543 0.0 1017541
17:00+18юв57685 0.0 1016572
20:00+17вюв59755 0.0 1016502
9 мая, вс
вс923:00+15в6128158 0.0 1016534
02:00+15вюв7138494 0.0 1015600
05:00+15вюв8148842 0.0 1014661
08:00+15вюв7148469 0.0 1014639
11:00+17вюв9157034 0.0 1013658
14:00+18вюв101666100 0.0 1011740
17:00+17юв81469100 0.0 1010893
20:00+16юв91678100 0.1 1008857
10 мая, пн
пн1023:00+16юв91689100 0.1 1009726
02:00+16юв91492100 0.3 1009774
05:00+15юв91295100 0.1 1009728
08:00+15юв81397100 0.6 1009664
11:00+15ююв91498100 4.8 1009854
14:00+15юв111696100 8.1 1008828
17:00+16ююв812898 2.3 1008691
20:00+15ююв6108766 2.9 1009658